QFA757 YPDN-YAYE

Flight info

Callsign QFA757
Flight time 1h 56m
Altitude 35000
Route LAKUP J251 TN/N0396F200 W605 HOO/N0466F350 DCT SOLLI DCT DEENO DCT RURAP
Aircraft B738/M-SDE2E3FGHIRWXY/LB1

Departure

Time 2026-04-24 07:02
Airport Darwin International Airport / RAAF Darwin (YPDN)

Arrival

Time 2026-04-24 08:59
Airport Ayers Rock Connellan Airport (YAYE)
Time Latitude Longitude Altitude Speed Heading
2026-04-24 06:30 -12.40831 130.87626 90 ft 0 kts 17°
2026-04-24 06:52 -12.40850 130.87620 92 ft 4 kts 16°
2026-04-24 06:52 -12.40876 130.87612 89 ft 4 kts 17°
2026-04-24 06:52 -12.40901 130.87604 91 ft 4 kts 25°
2026-04-24 06:52 -12.40921 130.87590 89 ft 4 kts 72°
2026-04-24 06:53 -12.40923 130.87582 89 ft 0 kts 116°
2026-04-24 06:56 -12.40928 130.87591 91 ft 4 kts 121°
2026-04-24 06:56 -12.40950 130.87609 91 ft 4 kts 159°
2026-04-24 06:56 -12.40978 130.87608 91 ft 4 kts 191°
2026-04-24 06:57 -12.41018 130.87595 90 ft 11 kts 202°
2026-04-24 06:57 -12.41121 130.87560 89 ft 17 kts 198°
2026-04-24 06:57 -12.41232 130.87523 90 ft 16 kts 197°
2026-04-24 06:57 -12.41338 130.87486 91 ft 16 kts 202°
2026-04-24 06:58 -12.41438 130.87445 91 ft 15 kts 213°
2026-04-24 06:58 -12.41491 130.87357 89 ft 15 kts 262°
2026-04-24 06:58 -12.41469 130.87259 91 ft 14 kts 294°
2026-04-24 06:58 -12.41438 130.87168 91 ft 13 kts 284°
2026-04-24 06:59 -12.41413 130.87079 91 ft 13 kts 290°
2026-04-24 06:59 -12.41382 130.86993 91 ft 13 kts 290°
2026-04-24 06:59 -12.41349 130.86896 90 ft 16 kts 289°
2026-04-24 06:59 -12.41306 130.86772 93 ft 20 kts 290°
2026-04-24 07:00 -12.41255 130.86627 92 ft 23 kts 288°
2026-04-24 07:00 -12.41209 130.86518 90 ft 13 kts 309°
2026-04-24 07:00 -12.41132 130.86478 90 ft 13 kts 352°
2026-04-24 07:00 -12.41048 130.86494 89 ft 12 kts 20°
2026-04-24 07:01 -12.40972 130.86530 91 ft 12 kts 46°
2026-04-24 07:01 -12.40963 130.86609 89 ft 12 kts 107°
2026-04-24 07:01 -12.41055 130.86885 89 ft 78 kts 109°
2026-04-24 07:01 -12.41311 130.87637 91 ft 143 kts 109°
2026-04-24 07:02 -12.41683 130.88718 504 ft 165 kts 109°
2026-04-24 07:02 -12.42051 130.89793 1427 ft 165 kts 107°
2026-04-24 07:02 -12.42417 130.90941 2096 ft 176 kts 110°
2026-04-24 07:02 -12.43165 130.92068 2197 ft 210 kts 141°
2026-04-24 07:03 -12.44433 130.92876 2490 ft 225 kts 146°
2026-04-24 07:03 -12.45797 130.93726 2812 ft 230 kts 144°
2026-04-24 07:03 -12.47132 130.94626 2913 ft 233 kts 143°
2026-04-24 07:03 -12.48479 130.95575 2962 ft 233 kts 142°
2026-04-24 07:04 -12.49819 130.96540 2957 ft 238 kts 142°
2026-04-24 07:04 -12.51195 130.97534 3070 ft 255 kts 143°
2026-04-24 07:04 -12.52724 130.98518 3709 ft 260 kts 146°
2026-04-24 07:04 -12.54282 130.99475 4523 ft 263 kts 146°
2026-04-24 07:05 -12.55859 131.00443 5313 ft 264 kts 146°
2026-04-24 07:05 -12.57447 131.01425 6022 ft 270 kts 146°
2026-04-24 07:05 -12.59067 131.02431 6716 ft 273 kts 146°
2026-04-24 07:05 -12.60697 131.03446 7412 ft 276 kts 146°
2026-04-24 07:06 -12.62356 131.04480 8013 ft 282 kts 146°
2026-04-24 07:06 -12.64025 131.05584 8612 ft 289 kts 144°
2026-04-24 07:06 -12.65709 131.06752 9193 ft 295 kts 144°
2026-04-24 07:06 -12.67418 131.07950 9810 ft 300 kts 145°
2026-04-24 07:07 -12.69153 131.09165 10416 ft 303 kts 145°
2026-04-24 07:07 -12.70907 131.10389 11026 ft 307 kts 145°
2026-04-24 07:07 -12.74456 131.12863 12381 ft 311 kts 146°
2026-04-24 07:08 -12.76256 131.14114 12975 ft 315 kts 146°
2026-04-24 07:08 -12.78080 131.15382 13668 ft 317 kts 146°
2026-04-24 07:08 -12.79907 131.16652 14307 ft 318 kts 147°
2026-04-24 07:08 -12.81743 131.17928 14980 ft 318 kts 146°
2026-04-24 07:09 -12.83573 131.19199 15688 ft 318 kts 146°
2026-04-24 07:09 -12.85406 131.20473 16347 ft 319 kts 146°
2026-04-24 07:09 -12.87240 131.21749 17052 ft 319 kts 146°
2026-04-24 07:09 -12.89073 131.23023 17759 ft 318 kts 146°
2026-04-24 07:10 -12.90916 131.24305 18313 ft 322 kts 145°
2026-04-24 07:10 -12.92761 131.25588 18765 ft 327 kts 146°
2026-04-24 07:10 -12.94656 131.26906 19257 ft 331 kts 146°
2026-04-24 07:10 -12.96593 131.28253 19808 ft 332 kts 145°
2026-04-24 07:11 -12.98483 131.29569 20357 ft 334 kts 146°
2026-04-24 07:11 -13.00425 131.30921 20810 ft 340 kts 146°
2026-04-24 07:11 -13.02391 131.32289 21301 ft 343 kts 146°
2026-04-24 07:11 -13.04360 131.33661 21874 ft 343 kts 146°
2026-04-24 07:12 -13.06344 131.35042 22396 ft 346 kts 146°
2026-04-24 07:12 -13.08341 131.36433 22893 ft 349 kts 146°
2026-04-24 07:12 -13.10363 131.37841 23328 ft 353 kts 146°
2026-04-24 07:12 -13.12398 131.39258 23784 ft 355 kts 146°
2026-04-24 07:13 -13.14449 131.40685 24189 ft 357 kts 146°
2026-04-24 07:13 -13.16509 131.42118 24610 ft 359 kts 146°
2026-04-24 07:13 -13.18598 131.43572 24922 ft 365 kts 146°
2026-04-24 07:13 -13.20706 131.45039 25356 ft 366 kts 146°
2026-04-24 07:14 -13.22820 131.46511 25717 ft 370 kts 146°
2026-04-24 07:14 -13.25052 131.47880 25933 ft 377 kts 159°
2026-04-24 07:14 -13.27591 131.48454 26428 ft 372 kts 179°
2026-04-24 07:14 -13.30189 131.48278 26641 ft 380 kts 188°
2026-04-24 07:15 -13.32846 131.47875 26710 ft 391 kts 189°
2026-04-24 07:15 -13.35576 131.47429 26781 ft 402 kts 189°
2026-04-24 07:15 -13.38372 131.46969 26850 ft 412 kts 189°
2026-04-24 07:15 -13.41204 131.46511 26900 ft 422 kts 189°
2026-04-24 07:16 -13.44135 131.46047 26969 ft 430 kts 189°
2026-04-24 07:16 -13.47127 131.45582 27017 ft 438 kts 189°
2026-04-24 07:16 -13.50168 131.45117 27079 ft 446 kts 189°
2026-04-24 07:16 -13.53260 131.44647 27126 ft 452 kts 189°
2026-04-24 07:17 -13.56392 131.44174 27239 ft 457 kts 189°
2026-04-24 07:17 -13.59537 131.43700 27530 ft 456 kts 189°
2026-04-24 07:17 -13.62686 131.43225 27747 ft 458 kts 189°
2026-04-24 07:17 -13.65843 131.42749 27959 ft 460 kts 189°
2026-04-24 07:18 -13.69022 131.42268 28137 ft 463 kts 189°
2026-04-24 07:18 -13.72213 131.41786 28333 ft 464 kts 189°
2026-04-24 07:18 -13.75413 131.41302 28546 ft 466 kts 189°
2026-04-24 07:18 -13.77540 131.40980 28662 ft 467 kts 190°
2026-04-24 07:19 -13.80759 131.40493 28871 ft 468 kts 190°
2026-04-24 07:19 -13.85043 131.39844 29089 ft 471 kts 190°
2026-04-24 07:19 -13.88288 131.39353 29258 ft 472 kts 189°
2026-04-24 07:19 -13.91556 131.38858 29427 ft 474 kts 190°
2026-04-24 07:20 -13.93722 131.38530 29537 ft 475 kts 190°
2026-04-24 07:20 -13.97047 131.38026 29721 ft 477 kts 190°
2026-04-24 07:20 -14.00288 131.37535 29930 ft 477 kts 190°
2026-04-24 07:20 -14.03568 131.37037 30155 ft 477 kts 190°
2026-04-24 07:21 -14.06846 131.36541 30395 ft 476 kts 190°
2026-04-24 07:21 -14.10112 131.36046 30641 ft 475 kts 190°
2026-04-24 07:21 -14.13388 131.35548 30831 ft 475 kts 190°
2026-04-24 07:21 -14.16674 131.35049 31016 ft 476 kts 190°
2026-04-24 07:22 -14.19950 131.34552 31228 ft 476 kts 190°
2026-04-24 07:22 -14.23229 131.34054 31446 ft 476 kts 190°
2026-04-24 07:22 -14.26513 131.33555 31664 ft 476 kts 190°
2026-04-24 07:22 -14.29792 131.33056 31892 ft 476 kts 190°
2026-04-24 07:23 -14.33072 131.32557 32113 ft 476 kts 191°
2026-04-24 07:23 -14.36346 131.32059 32350 ft 476 kts 190°
2026-04-24 07:23 -14.39630 131.31560 32600 ft 476 kts 191°
2026-04-24 07:23 -14.42869 131.31067 32814 ft 476 kts 191°
2026-04-24 07:24 -14.46148 131.30568 33049 ft 476 kts 191°
2026-04-24 07:24 -14.49424 131.30069 33304 ft 475 kts 191°
2026-04-24 07:24 -14.52691 131.29571 33563 ft 475 kts 191°
2026-04-24 07:24 -14.55959 131.29073 33792 ft 475 kts 191°
2026-04-24 07:25 -14.59231 131.28575 34009 ft 475 kts 191°
2026-04-24 07:25 -14.62493 131.28078 34381 ft 470 kts 191°
2026-04-24 07:25 -14.65699 131.27590 34841 ft 464 kts 191°
2026-04-24 07:25 -14.68896 131.27103 34904 ft 467 kts 191°
2026-04-24 07:26 -14.75363 131.26114 34935 ft 470 kts 191°
2026-04-24 07:26 -14.81830 131.25126 34943 ft 469 kts 191°
2026-04-24 07:27 -14.88282 131.24140 34949 ft 468 kts 191°
2026-04-24 07:27 -14.94715 131.23157 34947 ft 466 kts 191°
2026-04-24 07:28 -15.01061 131.22187 34935 ft 462 kts 191°
2026-04-24 07:28 -15.07405 131.21216 34937 ft 459 kts 191°
2026-04-24 07:29 -15.13717 131.20249 34941 ft 456 kts 191°
2026-04-24 07:29 -15.19982 131.19289 34944 ft 454 kts 191°
2026-04-24 07:30 -15.26219 131.18332 34945 ft 453 kts 191°
2026-04-24 07:30 -15.32415 131.17381 34947 ft 453 kts 191°
2026-04-24 07:31 -15.38662 131.16421 34947 ft 454 kts 191°
2026-04-24 07:31 -15.44926 131.15459 34951 ft 456 kts 192°
2026-04-24 07:32 -15.51233 131.14489 34947 ft 459 kts 192°
2026-04-24 07:32 -15.57556 131.13516 34951 ft 461 kts 191°
2026-04-24 07:33 -15.63915 131.12537 34942 ft 463 kts 191°
2026-04-24 07:33 -15.70298 131.11555 34950 ft 464 kts 191°
2026-04-24 07:34 -15.76703 131.10568 34949 ft 466 kts 192°
2026-04-24 07:34 -15.83126 131.09577 34946 ft 467 kts 192°
2026-04-24 07:35 -15.89509 131.08593 34951 ft 466 kts 192°
2026-04-24 07:35 -15.95932 131.07601 34956 ft 466 kts 192°
2026-04-24 07:36 -16.02342 131.06611 34947 ft 465 kts 192°
2026-04-24 07:36 -16.08751 131.05620 34952 ft 465 kts 192°
2026-04-24 07:37 -16.15141 131.04631 34956 ft 464 kts 192°
2026-04-24 07:37 -16.21522 131.03643 34959 ft 463 kts 192°
2026-04-24 07:38 -16.27909 131.02654 34955 ft 463 kts 192°
2026-04-24 07:38 -16.34289 131.01664 34958 ft 464 kts 192°
2026-04-24 07:39 -16.40678 131.00673 34961 ft 464 kts 192°
2026-04-24 07:39 -16.47040 130.99533 34963 ft 463 kts 194°
2026-04-24 07:40 -16.53380 130.98288 34964 ft 464 kts 194°
2026-04-24 07:40 -16.59694 130.97056 34965 ft 465 kts 194°
2026-04-24 07:41 -16.66060 130.95834 34966 ft 465 kts 194°
2026-04-24 07:41 -16.72435 130.94619 34964 ft 466 kts 194°
2026-04-24 07:42 -16.78810 130.93404 34967 ft 466 kts 194°
2026-04-24 07:42 -16.85183 130.92188 34974 ft 466 kts 194°
2026-04-24 07:43 -16.91565 130.90969 34973 ft 466 kts 194°
2026-04-24 07:43 -16.97938 130.89750 34973 ft 465 kts 194°
2026-04-24 07:44 -17.04303 130.88533 34970 ft 464 kts 194°
2026-04-24 07:44 -17.10605 130.87326 34975 ft 462 kts 194°
2026-04-24 07:45 -17.16933 130.86114 34977 ft 461 kts 194°
2026-04-24 07:45 -17.23260 130.84901 34977 ft 460 kts 194°
2026-04-24 07:46 -17.29519 130.83700 34980 ft 460 kts 194°
2026-04-24 07:46 -17.35811 130.82492 34986 ft 459 kts 194°
2026-04-24 07:47 -17.42105 130.81282 34986 ft 460 kts 194°
2026-04-24 07:47 -17.48413 130.80069 34989 ft 460 kts 194°
2026-04-24 07:48 -17.54723 130.78855 34993 ft 461 kts 194°
2026-04-24 07:48 -17.61042 130.77638 34988 ft 462 kts 194°
2026-04-24 07:49 -17.67375 130.76418 34995 ft 463 kts 195°
2026-04-24 07:49 -17.73676 130.75203 34990 ft 463 kts 195°
2026-04-24 07:50 -17.80022 130.73978 34991 ft 463 kts 195°
2026-04-24 07:50 -17.86364 130.72754 34994 ft 463 kts 195°
2026-04-24 07:51 -17.92709 130.71528 35007 ft 463 kts 195°
2026-04-24 07:51 -17.99038 130.70304 35001 ft 462 kts 195°
2026-04-24 07:52 -18.05362 130.69080 34996 ft 461 kts 195°
2026-04-24 07:52 -18.11632 130.67866 34999 ft 460 kts 195°
2026-04-24 07:53 -18.17917 130.66648 35001 ft 459 kts 195°
2026-04-24 07:53 -18.24195 130.65430 35007 ft 457 kts 195°
2026-04-24 07:54 -18.30466 130.64285 34994 ft 460 kts 189°
2026-04-24 07:54 -18.36897 130.64658 34999 ft 470 kts 171°
2026-04-24 07:55 -18.43230 130.66448 35005 ft 471 kts 168°
2026-04-24 07:55 -18.49537 130.68333 35016 ft 471 kts 168°
2026-04-24 07:56 -18.55855 130.70181 35006 ft 471 kts 169°
2026-04-24 07:56 -18.62181 130.71997 35008 ft 471 kts 169°
2026-04-24 07:57 -18.68473 130.73793 35011 ft 471 kts 169°
2026-04-24 07:57 -18.74801 130.75601 35016 ft 471 kts 169°
2026-04-24 07:58 -18.81143 130.77415 35012 ft 472 kts 169°
2026-04-24 07:58 -18.87494 130.79234 35016 ft 472 kts 169°
2026-04-24 07:59 -18.93834 130.81053 35027 ft 473 kts 169°
2026-04-24 07:59 -19.00190 130.82877 35021 ft 473 kts 169°
2026-04-24 08:00 -19.06501 130.84689 35024 ft 473 kts 169°
2026-04-24 08:00 -19.12867 130.86519 35024 ft 473 kts 169°
2026-04-24 08:01 -19.19228 130.88348 35024 ft 473 kts 169°
2026-04-24 08:01 -19.25582 130.90177 35031 ft 473 kts 169°
2026-04-24 08:02 -19.31939 130.92009 35024 ft 473 kts 169°
2026-04-24 08:02 -19.38258 130.93831 35027 ft 473 kts 169°
2026-04-24 08:03 -19.44603 130.95662 35039 ft 472 kts 170°
2026-04-24 08:03 -19.50946 130.97494 35029 ft 472 kts 170°
2026-04-24 08:04 -19.57285 130.99326 35042 ft 471 kts 170°
2026-04-24 08:04 -19.63609 131.01156 35039 ft 470 kts 170°
2026-04-24 08:05 -19.69922 131.02984 35028 ft 470 kts 170°
2026-04-24 08:05 -19.76192 131.04800 35045 ft 469 kts 170°
2026-04-24 08:06 -19.82489 131.06626 35058 ft 469 kts 170°
2026-04-24 08:06 -19.88785 131.08453 35043 ft 469 kts 170°
2026-04-24 08:07 -19.94062 131.09986 35049 ft 469 kts 170°
2026-04-24 08:07 -20.00315 131.11803 35052 ft 469 kts 170°
2026-04-24 08:08 -20.06607 131.13633 35046 ft 469 kts 170°
2026-04-24 08:09 -20.16050 131.16383 35062 ft 469 kts 170°
2026-04-24 08:09 -20.22345 131.18218 35052 ft 469 kts 170°
2026-04-24 08:10 -20.28634 131.20053 35056 ft 468 kts 170°
2026-04-24 08:10 -20.34922 131.21890 35055 ft 468 kts 170°
2026-04-24 08:11 -20.41201 131.23725 35050 ft 468 kts 170°
2026-04-24 08:11 -20.47457 131.25550 35051 ft 468 kts 172°
2026-04-24 08:12 -20.53805 131.26273 35054 ft 454 kts 188°
2026-04-24 08:12 -20.60110 131.25944 35059 ft 453 kts 189°
2026-04-24 08:13 -20.66416 131.25602 35049 ft 454 kts 188°
2026-04-24 08:13 -20.72738 131.25300 35052 ft 454 kts 188°
2026-04-24 08:14 -20.79062 131.25019 35052 ft 455 kts 188°
2026-04-24 08:14 -20.85385 131.24743 35052 ft 455 kts 188°
2026-04-24 08:15 -20.91708 131.24465 35054 ft 455 kts 188°
2026-04-24 08:15 -20.98031 131.24187 35053 ft 455 kts 188°
2026-04-24 08:16 -21.04352 131.23907 35060 ft 454 kts 188°
2026-04-24 08:16 -21.10627 131.23630 35057 ft 454 kts 188°
2026-04-24 08:17 -21.16937 131.23351 35060 ft 454 kts 188°
2026-04-24 08:17 -21.23256 131.23071 35059 ft 453 kts 188°
2026-04-24 08:18 -21.29550 131.22792 35060 ft 452 kts 188°
2026-04-24 08:18 -21.35829 131.22513 35063 ft 451 kts 188°
2026-04-24 08:19 -21.42064 131.22236 35071 ft 451 kts 188°
2026-04-24 08:19 -21.48333 131.21957 35067 ft 450 kts 188°
2026-04-24 08:20 -21.54595 131.21679 35069 ft 450 kts 188°
2026-04-24 08:20 -21.60864 131.21524 35073 ft 453 kts 185°
2026-04-24 08:21 -21.67161 131.21824 35077 ft 454 kts 183°
2026-04-24 08:21 -21.73473 131.22199 35076 ft 454 kts 183°
2026-04-24 08:22 -21.79785 131.22548 35076 ft 454 kts 184°
2026-04-24 08:22 -21.86096 131.22871 35091 ft 454 kts 184°
2026-04-24 08:23 -21.92410 131.23184 35082 ft 455 kts 184°
2026-04-24 08:23 -21.98743 131.23499 35083 ft 455 kts 184°
2026-04-24 08:24 -22.05080 131.23815 35084 ft 456 kts 184°
2026-04-24 08:24 -22.11422 131.24132 35090 ft 457 kts 184°
2026-04-24 08:25 -22.17785 131.24450 35091 ft 457 kts 184°
2026-04-24 08:25 -22.24150 131.24769 35089 ft 458 kts 184°
2026-04-24 08:26 -22.30482 131.25087 35097 ft 459 kts 184°
2026-04-24 08:26 -22.36868 131.25407 35101 ft 459 kts 184°
2026-04-24 08:27 -22.43257 131.25729 35088 ft 460 kts 184°
2026-04-24 08:27 -22.49645 131.26050 35096 ft 460 kts 184°
2026-04-24 08:28 -22.56042 131.26372 35093 ft 460 kts 184°
2026-04-24 08:28 -22.62429 131.26694 35096 ft 459 kts 184°
2026-04-24 08:29 -22.68816 131.27016 35089 ft 459 kts 184°
2026-04-24 08:29 -22.75205 131.27339 35099 ft 459 kts 184°
2026-04-24 08:30 -22.81583 131.27661 35100 ft 459 kts 184°
2026-04-24 08:30 -22.87950 131.27983 35104 ft 458 kts 185°
2026-04-24 08:31 -22.94323 131.28305 35101 ft 458 kts 185°
2026-04-24 08:31 -23.00693 131.28628 35101 ft 458 kts 185°
2026-04-24 08:32 -23.07048 131.28950 35114 ft 457 kts 185°
2026-04-24 08:32 -23.13366 131.29271 35105 ft 457 kts 185°
2026-04-24 08:33 -23.19755 131.29596 35101 ft 457 kts 185°
2026-04-24 08:33 -23.26056 131.29916 35106 ft 456 kts 185°
2026-04-24 08:34 -23.32394 131.30239 35116 ft 456 kts 185°
2026-04-24 08:34 -23.38727 131.30561 35108 ft 456 kts 185°
2026-04-24 08:35 -23.45062 131.30884 35105 ft 455 kts 185°
2026-04-24 08:35 -23.51394 131.31207 34767 ft 460 kts 185°
2026-04-24 08:35 -23.54591 131.31367 34226 ft 459 kts 185°
2026-04-24 08:36 -23.57790 131.31531 33507 ft 460 kts 184°
2026-04-24 08:36 -23.60986 131.31695 32795 ft 460 kts 184°
2026-04-24 08:36 -23.64190 131.31859 32083 ft 461 kts 184°
2026-04-24 08:36 -23.67382 131.32024 31578 ft 457 kts 184°
2026-04-24 08:37 -23.70552 131.32189 31051 ft 454 kts 184°
2026-04-24 08:37 -23.73694 131.32352 30507 ft 450 kts 184°
2026-04-24 08:37 -23.76806 131.32514 29743 ft 446 kts 184°
2026-04-24 08:37 -23.79892 131.32673 28885 ft 442 kts 183°
2026-04-24 08:38 -23.82955 131.32830 28081 ft 438 kts 183°
2026-04-24 08:38 -23.85984 131.32985 27360 ft 432 kts 182°
2026-04-24 08:38 -23.88962 131.33139 26789 ft 425 kts 182°
2026-04-24 08:38 -23.91867 131.33288 26298 ft 422 kts 182°
2026-04-24 08:39 -23.94794 131.33437 25808 ft 419 kts 182°
2026-04-24 08:39 -23.97697 131.33585 25317 ft 416 kts 181°
2026-04-24 08:39 -24.00581 131.33733 24841 ft 413 kts 181°
2026-04-24 08:39 -24.03441 131.33879 24364 ft 411 kts 181°
2026-04-24 08:40 -24.06294 131.34025 23883 ft 409 kts 180°
2026-04-24 08:40 -24.09122 131.34170 23368 ft 406 kts 180°
2026-04-24 08:40 -24.11935 131.34315 22856 ft 403 kts 180°
2026-04-24 08:40 -24.14723 131.34459 22376 ft 399 kts 180°
2026-04-24 08:41 -24.17482 131.34602 21912 ft 395 kts 180°
2026-04-24 08:41 -24.20222 131.34743 21447 ft 392 kts 180°
2026-04-24 08:41 -24.22929 131.34883 21021 ft 388 kts 179°
2026-04-24 08:41 -24.25622 131.35022 20578 ft 385 kts 179°
2026-04-24 08:42 -24.28287 131.35159 20144 ft 382 kts 179°
2026-04-24 08:42 -24.30939 131.35296 19710 ft 380 kts 179°
2026-04-24 08:42 -24.33580 131.35432 19279 ft 378 kts 179°
2026-04-24 08:42 -24.36198 131.35568 18849 ft 376 kts 179°
2026-04-24 08:43 -24.38814 131.35703 18393 ft 375 kts 179°
2026-04-24 08:43 -24.41417 131.35837 17920 ft 374 kts 179°
2026-04-24 08:43 -24.44003 131.35971 17450 ft 372 kts 178°
2026-04-24 08:43 -24.46583 131.36105 17012 ft 370 kts 178°
2026-04-24 08:44 -24.49117 131.36236 16578 ft 368 kts 178°
2026-04-24 08:44 -24.51668 131.36368 16149 ft 366 kts 178°
2026-04-24 08:44 -24.54208 131.36500 15712 ft 364 kts 178°
2026-04-24 08:44 -24.56736 131.36631 15282 ft 363 kts 177°
2026-04-24 08:45 -24.59260 131.36762 14861 ft 362 kts 177°
2026-04-24 08:45 -24.61778 131.36893 14408 ft 362 kts 176°
2026-04-24 08:45 -24.64294 131.37024 13973 ft 361 kts 176°
2026-04-24 08:45 -24.66801 131.37154 13502 ft 360 kts 176°
2026-04-24 08:46 -24.69302 131.37215 13053 ft 358 kts 182°
2026-04-24 08:46 -24.71747 131.36775 12711 ft 353 kts 193°
2026-04-24 08:46 -24.74113 131.36092 12316 ft 350 kts 194°
2026-04-24 08:46 -24.76460 131.35400 11912 ft 348 kts 194°
2026-04-24 08:47 -24.78792 131.34713 11506 ft 345 kts 193°
2026-04-24 08:47 -24.81105 131.34038 11100 ft 343 kts 193°
2026-04-24 08:47 -24.83372 131.33382 10837 ft 336 kts 193°
2026-04-24 08:47 -24.85592 131.32741 10686 ft 326 kts 193°
2026-04-24 08:48 -24.87753 131.32120 10547 ft 316 kts 193°
2026-04-24 08:48 -24.89845 131.31520 10413 ft 306 kts 193°
2026-04-24 08:48 -24.91885 131.30935 10231 ft 300 kts 193°
2026-04-24 08:48 -24.93883 131.30363 10056 ft 293 kts 193°
2026-04-24 08:49 -24.95840 131.29803 9786 ft 291 kts 193°
2026-04-24 08:49 -24.97797 131.29243 9481 ft 289 kts 193°
2026-04-24 08:49 -24.99737 131.28688 9181 ft 286 kts 193°
2026-04-24 08:49 -25.01658 131.28137 8888 ft 284 kts 193°
2026-04-24 08:50 -25.03564 131.27591 8599 ft 282 kts 193°
2026-04-24 08:50 -25.05463 131.27046 8301 ft 281 kts 193°
2026-04-24 08:50 -25.07351 131.26505 8012 ft 279 kts 193°
2026-04-24 08:50 -25.09228 131.25966 7723 ft 278 kts 193°
2026-04-24 08:51 -25.11097 131.25430 7423 ft 277 kts 192°
2026-04-24 08:51 -25.12962 131.24894 7135 ft 276 kts 193°
2026-04-24 08:51 -25.14790 131.24369 6851 ft 275 kts 193°
2026-04-24 08:51 -25.16663 131.23831 6562 ft 274 kts 192°
2026-04-24 08:52 -25.18468 131.23312 6378 ft 269 kts 192°
2026-04-24 08:52 -25.20260 131.22796 6245 ft 263 kts 192°
2026-04-24 08:52 -25.22010 131.22293 6117 ft 256 kts 192°
2026-04-24 08:52 -25.23712 131.21803 6002 ft 249 kts 192°
2026-04-24 08:53 -25.25350 131.21262 5880 ft 243 kts 205°
2026-04-24 08:53 -25.26258 131.20511 5731 ft 243 kts 229°
2026-04-24 08:53 -25.27176 131.18993 5518 ft 234 kts 238°
2026-04-24 08:53 -25.27981 131.17470 5315 ft 231 kts 238°
2026-04-24 08:54 -25.28783 131.15954 5116 ft 225 kts 238°
2026-04-24 08:54 -25.29524 131.14459 4874 ft 220 kts 248°
2026-04-24 08:54 -25.29596 131.12823 4606 ft 211 kts 288°
2026-04-24 08:54 -25.28917 131.11426 4404 ft 206 kts 307°
2026-04-24 08:55 -25.28033 131.10226 4149 ft 196 kts 311°
2026-04-24 08:55 -25.27170 131.09113 3917 ft 185 kts 311°
2026-04-24 08:55 -25.26386 131.08086 3789 ft 165 kts 310°
2026-04-24 08:55 -25.25659 131.07125 3614 ft 164 kts 311°
2026-04-24 08:56 -25.24938 131.06166 3404 ft 161 kts 312°
2026-04-24 08:56 -25.24235 131.05232 3187 ft 156 kts 311°
2026-04-24 08:56 -25.23534 131.04301 2995 ft 159 kts 310°
2026-04-24 08:56 -25.22833 131.03365 2802 ft 157 kts 311°
2026-04-24 08:57 -25.22127 131.02459 2549 ft 156 kts 311°
2026-04-24 08:57 -25.21456 131.01542 2273 ft 152 kts 308°
2026-04-24 08:57 -25.20811 131.00644 2084 ft 148 kts 310°
2026-04-24 08:57 -25.20129 130.99763 1942 ft 151 kts 312°
2026-04-24 08:58 -25.19461 130.98861 1726 ft 153 kts 310°
2026-04-24 08:58 -25.18774 130.97964 1630 ft 151 kts 308°
2026-04-24 08:58 -25.18099 130.97080 1620 ft 150 kts 303°
2026-04-24 08:58 -25.17604 130.96470 1620 ft 69 kts 291°
2026-04-24 08:59 -25.17444 130.96286 1611 ft 36 kts 43°
2026-04-24 08:59 -25.17572 130.96556 1619 ft 57 kts 154°
2026-04-24 08:59 -25.17839 130.96726 1620 ft 39 kts 136°
2026-04-24 08:59 -25.17980 130.96913 1618 ft 19 kts 129°
2026-04-24 09:00 -25.18062 130.97022 1618 ft 18 kts 134°
2026-04-24 09:00 -25.18145 130.97123 1617 ft 17 kts 129°
2026-04-24 09:00 -25.18220 130.97225 1619 ft 17 kts 132°
2026-04-24 09:00 -25.18281 130.97278 1619 ft 7 kts 178°
2026-04-24 09:01 -25.18328 130.97254 1620 ft 7 kts 202°
2026-04-24 09:01 -25.18372 130.97279 1620 ft 7 kts 136°
2026-04-24 09:01 -25.18406 130.97321 1621 ft 7 kts 128°
2026-04-24 09:01 -25.18437 130.97364 1622 ft 7 kts 129°
2026-04-24 09:02 -25.18467 130.97405 1623 ft 7 kts 128°
2026-04-24 09:02 -25.18496 130.97445 1622 ft 6 kts 129°
2026-04-24 09:02 -25.18531 130.97446 1621 ft 6 kts 206°
2026-04-24 09:02 -25.18572 130.97436 1621 ft 6 kts 179°
2026-04-24 09:03 -25.18609 130.97456 1619 ft 6 kts 135°
2026-04-24 09:03 -25.18643 130.97498 1622 ft 12 kts 131°
2026-04-24 09:03 -25.18710 130.97589 1622 ft 13 kts 129°
2026-04-24 09:03 -25.18766 130.97663 1620 ft 13 kts 130°
2026-04-24 09:04 -25.18823 130.97738 1618 ft 11 kts 129°
2026-04-24 09:04 -25.18858 130.97776 1618 ft 6 kts 156°
2026-04-24 09:04 -25.18897 130.97764 1618 ft 6 kts 214°
2026-04-24 09:04 -25.18936 130.97732 1619 ft 8 kts 215°
2026-04-24 09:05 -25.18984 130.97740 1616 ft 7 kts 130°
2026-04-24 09:05 -25.19010 130.97773 1618 ft 5 kts 140°
2026-04-24 09:05 -25.19039 130.97767 1617 ft 2 kts 234°
2026-04-24 09:05 -25.19040 130.97755 1615 ft 2 kts 269°
2026-04-24 09:06 -25.19041 130.97737 1615 ft 2 kts 265°
2026-04-24 09:06 -25.19041 130.97735 1615 ft 0 kts 265°